SCP
0 0 0 0 0 0 0 0 0 0 0 0 0 0 0 0 0 0 0 0 0 0 0 0 0 0 0 0 0 0 0 0 0 0 0 0 0 -0 -0 -0 -0 0 0 0 0 0 0 -0 0 0 0 0 0 -0
0 0 0 0 0 0 0 0 0 0 0 0 0 0 0 0 0 0 0 0 0 0 0 0 -0 -0 -0 0 0 0 0 0 0 0 0 0 0 -0 -0 -0 0 0 0 0 0 0 0 0 0 0 0 0 -0 0
0 0 0 0 0 0 0 0 0 0 0 0 0 0 0 0 0 0 0 0 0 0 0 0 0 0 0 0 0 0 0 0 0 0 0 0 0 -0 -0 -0 -0 0 0 0 0 0 0 0 -0 0 0 0 -0 0
0 0 0 0 0 0 0 0 0 0 0 0 0 0 0 0 0 0 0 0 0 0 0 0 0 -0 0 0 0 0 0 0 0 0 0 0 0 -0 0 0 -0 -0 0 0 0 0 0 0 0 -0 -0 0 0 -0
0 0 0 0 0 0 0 0 0 0 0 0 0 0 0 0 0 0 0 0 0 0 0 0 0 0 0 0 0 0 0 0 0 0 0 0 0 0 0 0 -0 0 0 0 0 0 0 0 -0 0 0 -0 -0 0
0 0 0 0 0 0 0 0 0 0 0 0 0 0 0 0 0 0 0 0 0 0 0 0 0 0 0 0 0 0 0 0 0 0 0 0 0 0 0 0 -0 -0 0 0 0 0 0 0 0 -0 -0 -0 0 0
0 0 0 0 0 0 0 0 0 0 0 0 0 0 0 0 0 0 0 0 0 0 0 0 0 0 0 0 0 0 0 0 0 0 0 0 0 0 0 0 -0 -0 0 0 0 0 -0 0 -0 -0 -0 -0 0 0
0 0 0 0 0 0 0 0 0 0 0 0 0 0 0 0 0 0 0 0 0 0 0 0 0 0 0 0 0 0 0 0 0 0 0 0 0 0 -0 0 -0 0 0 0 0 0 -0 -0 -0 -0 -0 0 0 0
0 0 0 0 0 0 0 0 0 0 0 0 0 0 0 0 0 0 0 0 0 0 0 0 0 0 0 0 0 0 0 0 0 0 0 0 0 0 0 0 0 0 0 0 0 0 0 -0 0 0 -0 0 0 0
0 0 0 0 0 0 0 0 0 0 0 0 0 0 0 0 0 0 0 0 0 0 0 0 0 -0 -0 -0 0 0 0 0 0 0 0 0 0 0 0 -0 0 0 0 0 -0 0 -0 -0 -0 0 0 0 0 0
0 0 0 0 0 0 0 0 0 0 0 0 0 0 0 0 0 0 0 0 0 0 0 0 0 -0 -0 -0 -0 -0 -0 0 0 0 0 0 0 0 0 0 0 0 0 0 0 0 0 0 0 0 0 0 0 0
0 0 0 0 0 0 0 0 0 0 0 0 0 0 0 0 0 0 0 0 0 0 0 0 0 0 0 0 0 -0 0 -0 0 -0 0 0 0 -0 -0 0 0 0 0 -0 -0 0 0 0 0 0 0 0 0 0
0 0 0 0 0 0 0 0 0 0 0 0 0 0 0 0 0 0 0 0 -0 -0 -0 -0 0 0 0 0 -0 -0 0 0 -0 0 0 0 -0 -0 0 0 0 0 0 -0 -0 0 0 -0 0 0 0 0 0 0
0 0 0 0 0 0 0 0 0 0 0 0 0 0 0 0 0 0 0 -0 -0 -0 -0 -0 0 0 0 0 0 0 -0 -0 0 -0 0 -0 -0 0 0 -0 0 -0 0 -0 -0 -0 0 0 -0 0 0 0 0 0
0 0 0 0 0 0 0 0 -0 0 0 0 0 0 0 0 0 -0 -0 0 0 0 0 0 0 0 0 0 -0 0 -0 0 0 0 -0 0 0 0 -0 -0 0 -0 -0 -0 -0 -0 0 -0 -0 -0 -0 0 0 0
0 0 0 0 0 0 0 -0 0 0 0 0 0 0 0 0 0 0 0 0 0 -0 0 0 0 0 -0 -0 -0 0 0 0 0 0 -0 0 -0 0 0 -0 0 0 -0 -0 0 0 0 -0 -0 -0 -0 -0 0 0
0 0 0 0 0 -0 -0 0 0 0 0 0 0 0 0 0 0 0 0 0 0 0 -0 0 0 0 0 0 0 0 0 0 0 0 0 -0 -0 -0 -0 -0 0 -0 -0 0 -0 0 0 0 0 -0 -0 -0 -0 0
0 0 0 0 0 0 0 0 0 0 0 0 0 0 0 0 0 0 0 0 -0 -0 0 0 0 0 0 0 0 0 0 0 0 0 -0 -0 -0 -0 -0 0 0 -0 0 -0 -0 0 0 0 0 0 -0 -0 -0 -0
0 0 0 0 0 0 0 0 0 0 0 0 0 0 0 -0 -0 -0 -0 0 -0 -0 0 -0 0 0 0 0 0 0 0 0 0 0 -0 -0 -0 -0 -0 -0 0 -0 -0 0 -0 -0 0 -0 0 0 0 -0 -0 -0
0 0 0 0 0 0 0 0 0 0 0 0 0 0 -0 0 -0 -0 -0 -0 -0 0 0 0 -0 -0 -0 0 0 0 0 0 0 0 0 0 0 -0 -0 -0 0 -0 0 0 0 0 0 -0 0 -0 -0 0 0 -0
0 0 0 0 0 0 0 0 0 0 0 0 -0 -0 -0 0 0 0 0 -0 0 0 0 0 -0 -0 0 -0 -0 0 0 0 0 0 0 0 0 -0 0 -0 0 0 0 -0 0 -0 -0 -0 -0 -0 0 0 0 -0
0 0 0 0 0 0 0 0 0 0 0 0 -0 -0 -0 0 0 0 -0 -0 0 0 0 0 0 0 0 0 0 0 0 0 0 0 0 0 0 0 -0 0 -0 -0 -0 -0 0 -0 0 -0 -0 0 0 -0 -0 -0
0 0 0 0 0 0 0 0 0 0 0 0 -0 -0 -0 0 0 0 0 0 0 0 0 -0 -0 0 0 0 0 0 0 0 0 0 0 0 0 0 0 0 0 -0 0 -0 -0 0 0 0 0 -0 0 0 0 0
0 0 0 0 0 0 0 0 0 0 0 0 0 0 0 0 0 0 -0 0 0 0 -0 -0 -0 0 0 0 0 0 0 0 0 0 0 0 0 0 0 0 0 -0 -0 0 -0 -0 0 0 0 0 -0 0 0 0
0 0 0 0 0 0 0 0 0 0 0 0 0 0 0 0 0 0 -0 -0 -0 0 0 -0 -0 0 0 0 0 0 0 0 0 0 0 0 0 0 0 0 0 0 0 0 0 0 -0 0 0 0 0 -0 0 0
0 0 0 0 0 0 0 0 0 0 0 0 0 0 0 0 0 0 0 0 0 0 0 -0 -0 0 0 0 -0 0 0 0 0 0 0 0 0 0 0 0 0 0 0 0 0 0 0 0 0 -0 0 0 0 -0
0 0 0 0 0 0 0 0 0 0 0 0 0 0 0 0 0 0 0 0 0 0 -0 -0 -0 -0 -0 -0 -0 -0 -0 0 0 0 0 0 0 0 0 0 0 0 0 0 0 0 0 0 -0 -0 0 0 0 0
0 0 0 0 0 0 0 0 0 0 0 0 0 0 0 0 0 0 0 0 0 -0 0 -0 -0 -0 -0 -0 -0 -0 -0 0 0 0 0 0 0 0 0 0 0 0 0 0 0 0 0 -0 0 0 0 0 0 0
0 0 0 0 0 0 0 0 0 0 0 0 0 0 0 0 0 0 0 0 0 0 0 0 0 -0 -0 -0 -0 0 -0 0 0 0 0 0 0 0 0 0 0 0 0 0 0 0 0 0 0 0 0 0 0 0
0 0 0 0 0 0 0 0 0 0 0 0 0 0 0 0 0 0 0 0 0 0 0 0 -0 0 0 0 0 0 -0 -0 0 0 0 0 0 0 0 0 0 0 0 0 0 0 0 0 0 0 0 0 0 0
0 0 0 0 0 0 0 0 0 0 0 0 0 0 0 0 0 0 0 0 0 0 0 0 0 0 0 0 0 0 0 0 -0 0 0 0 0 0 0 0 0 0 0 0 0 0 0 0 0 0 0 0 0 0
0 0 0 0 0 0 0 0 0 0 0 0 0 0 0 0 0 0 0 0 0 0 0 0 0 0 0 0 0 0 0 0 0 0 0 0 0 0 0 0 0 0 0 0 0 0 0 0 0 0 0 0 0 0
0 0 0 0 0 0 0 0 0 0 0 0 0 0 0 0 0 0 0 0 0 0 0 0 0 0 0 0 0 0 0 0 -0 -0 -0 -0 0 0 0 0 0 0 0 0 0 0 0 0 0 0 0 0 0 0
Wind_Speed_500mb
37 39 37 36 40 44 46 49 48 50 50 49 47 42 38 35 30 25 24 18 29 42 67 66 50 45 31 24 10 27 23 12 17 7 6 8 8 10 15 20 23 6 6 6 4 9 8 19 11 5 13 51 57 51
39 39 38 37 39 44 46 48 48 50 51 50 48 44 39 32 27 27 31 18 28 42 56 71 69 67 66 59 49 16 16 16 10 6 7 10 14 9 22 11 23 9 8 7 10 8 25 35 25 35 41 46 42 51
39 39 38 38 40 43 46 48 50 50 50 50 49 46 37 28 26 30 33 32 26 47 64 40 44 28 28 40 37 29 17 16 14 12 3 4 10 15 11 16 29 21 36 12 8 10 10 34 39 35 42 44 50 53
40 40 39 37 41 44 48 47 50 49 49 48 47 46 40 35 36 36 36 32 30 22 17 15 24 35 23 23 37 44 38 19 26 19 8 6 7 17 13 24 29 31 24 17 23 15 26 7 26 41 50 43 53 65
39 39 38 36 40 48 48 47 49 50 48 46 45 46 41 41 45 45 43 38 30 27 12 37 67 15 14 37 50 38 37 37 37 9 8 6 10 14 14 12 20 6 13 8 5 14 3 21 40 45 45 45 54 62
39 37 36 34 41 47 48 49 50 51 47 45 44 45 43 45 41 20 13 1 22 35 11 9 29 41 21 22 27 48 48 43 31 8 7 12 28 11 6 8 30 34 21 18 7 16 19 42 45 40 47 50 53 40
38 36 32 34 43 47 49 51 52 51 47 44 44 46 47 39 31 17 6 7 7 15 8 13 13 6 15 24 24 24 30 20 21 8 11 16 41 21 7 19 47 36 26 20 22 25 43 38 41 53 42 47 40 29
37 33 31 35 44 47 48 50 51 50 47 44 43 43 38 19 15 21 19 34 28 11 11 7 11 20 18 21 11 19 16 16 16 11 10 11 23 13 9 32 25 23 24 26 26 30 35 41 41 34 35 44 40 30
33 30 31 36 44 47 47 48 48 46 44 42 35 28 17 7 7 7 13 18 22 21 8 8 8 14 3 12 9 15 19 9 13 8 9 12 8 10 19 35 20 28 29 22 28 27 39 40 40 28 35 45 41 36
29 30 32 36 45 44 44 44 42 41 40 30 23 9 9 3 6 15 9 6 12 13 12 11 35 26 39 39 8 5 15 7 7 14 14 10 12 20 21 19 14 21 25 24 28 31 35 44 37 31 32 37 39 32
30 30 31 38 42 40 40 38 36 39 29 22 13 9 15 21 14 13 9 14 13 8 14 16 27 19 26 17 14 11 6 6 7 7 8 7 0 2 18 14 13 18 23 22 20 24 26 33 34 21 30 36 40 39
31 30 31 37 37 36 36 32 32 30 19 23 22 26 15 7 9 7 7 8 11 5 5 15 6 5 7 7 8 9 6 6 7 9 5 4 5 29 19 16 13 18 21 21 23 25 31 32 31 25 30 40 42 43
30 30 31 31 33 32 29 27 27 28 26 2 4 6 6 7 4 9 9 6 7 17 25 31 20 8 8 9 11 7 5 9 21 6 2 9 11 19 20 12 11 15 21 21 27 28 32 31 29 33 31 36 44 40
29 31 26 28 29 25 23 23 24 20 8 7 6 6 7 3 7 6 14 15 16 23 26 28 23 5 6 4 6 8 9 7 5 5 7 16 4 11 19 19 9 15 19 23 26 27 32 33 32 32 39 37 38 40
29 25 24 24 20 18 20 19 12 8 5 7 9 5 5 17 32 38 38 37 38 38 33 24 27 23 5 5 4 7 8 7 1 4 7 39 15 8 22 20 7 15 17 24 23 24 29 31 32 34 33 35 32 31
23 21 21 13 12 15 16 2 6 1 2 5 7 13 22 26 29 34 35 29 31 43 40 21 12 7 7 2 5 7 6 8 11 13 38 36 24 7 16 13 11 8 14 19 22 22 24 27 30 30 32 37 35 33
16 13 15 10 9 7 6 10 2 2 2 6 12 17 19 27 30 30 32 28 28 23 9 8 12 9 11 4 6 10 7 8 34 46 54 45 44 39 5 14 10 19 18 13 16 19 19 22 22 23 30 33 43 49
15 12 17 11 3 4 5 2 4 6 11 18 14 16 18 24 26 28 28 23 22 24 17 6 11 4 6 9 5 7 25 40 45 46 60 43 31 30 25 1 16 12 12 10 12 12 13 15 21 26 28 31 33 31
31 25 9 8 7 12 8 6 6 7 6 12 14 18 24 25 23 26 29 21 23 25 15 8 6 8 9 17 38 48 49 49 45 46 44 47 45 37 20 37 12 14 13 14 12 15 13 18 19 22 23 24 29 30
23 20 11 8 18 6 7 7 6 7 9 11 11 17 22 22 34 32 24 23 21 11 14 11 10 24 29 40 42 46 50 47 44 46 50 58 48 44 44 40 9 5 9 15 14 15 15 16 19 20 23 25 27 29
16 14 9 18 6 5 6 5 8 5 8 10 13 19 12 18 21 24 24 20 23 12 13 20 33 43 42 36 39 37 35 37 40 38 43 46 48 44 36 37 20 4 10 23 17 13 13 16 16 19 20 24 25 30
13 9 11 7 7 7 7 8 7 8 7 9 13 13 8 11 11 14 29 32 14 13 22 32 41 45 42 39 40 35 36 36 32 35 33 34 39 42 39 30 26 18 14 17 9 13 18 17 18 16 20 27 27 26
15 20 9 10 8 8 8 7 8 4 1 6 8 6 5 5 4 5 9 14 11 22 29 34 35 38 40 40 43 35 31 33 29 30 34 35 34 37 39 35 36 28 11 22 24 13 18 23 25 20 23 20 22 31
21 10 10 11 15 8 6 12 9 8 8 6 4 2 4 5 4 6 7 7 15 24 31 41 34 36 40 48 56 52 49 40 30 24 23 29 35 38 38 37 37 29 12 16 29 30 28 23 26 26 27 24 24 22
6 9 9 8 12 10 9 8 12 6 6 4 3 4 5 4 1 5 5 7 19 25 33 38 38 39 40 41 52 58 49 40 36 34 33 34 38 40 38 35 31 35 33 32 15 30 30 34 32 29 28 27 28 27
10 14 15 21 14 11 12 9 13 14 3 3 6 5 2 2 4 6 5 11 13 20 28 33 36 37 38 44 47 61 57 44 32 33 34 33 39 43 42 44 43 29 30 22 21 27 41 35 33 33 32 31 32 31
9 14 16 18 22 19 9 15 9 8 9 7 6 9 2 2 5 7 7 8 11 17 21 24 27 28 33 36 38 47 52 46 40 26 36 42 40 46 44 46 45 33 26 19 22 17 17 32 42 40 38 33 33 32
15 16 21 24 17 13 10 11 10 8 9 8 1 7 9 4 5 7 4 6 10 15 17 20 23 24 25 26 30 38 46 46 40 37 25 32 40 52 47 45 39 24 27 33 28 13 8 21 39 35 43 41 36 35
14 19 26 21 17 8 14 15 13 12 4 3 5 5 7 8 10 8 4 5 8 11 15 19 21 22 23 24 27 29 37 51 58 59 55 59 66 67 66 61 54 45 28 26 22 23 20 9 23 34 39 52 44 40
21 27 13 24 14 13 18 21 10 9 7 7 18 25 24 19 13 8 5 5 8 10 12 14 16 21 24 26 27 30 32 39 46 47 48 52 50 52 60 62 57 53 45 35 26 15 13 13 13 25 33 49 51 46
26 29 17 19 17 29 29 27 19 14 13 12 13 22 22 21 14 9 9 8 6 7 9 12 14 18 22 25 28 30 31 33 39 41 45 41 47 44 47 55 56 52 50 44 39 26 10 17 22 20 35 43 50 56
34 30 27 14 15 18 33 29 24 18 17 17 17 24 20 17 12 6 5 7 7 8 10 11 13 15 20 19 19 21 25 27 34 46 44 44 46 47 43 46 53 51 50 49 49 44 35 21 6 25 34 37 45 53
25 30 30 21 16 23 27 18 17 16 18 18 12 17 14 11 9 9 5 6 8 9 10 10 9 13 13 18 21 20 21 22 32 39 38 37 37 42 43 41 40 45 45 48 50 49 49 44 36 28 23 21 26 33
Wind_Direction_500mb
298 304 304 307 315 326 330 330 331 330 332 333 333 332 327 325 323 317 290 264 268 274 282 282 278 283 285 267 254 292 320 16 302 279 305 339 323 326 317 313 297 282 271 264 283 276 299 265 25 212 290 296 299 303
294 299 300 304 312 322 327 326 327 326 328 331 330 328 326 323 323 317 300 302 278 274 270 288 285 276 265 262 265 249 256 317 280 317 344 326 317 299 316 297 317 317 287 261 205 252 319 333 309 295 294 278 291 297
290 293 296 303 309 317 324 323 324 324 325 326 327 325 322 319 317 302 294 296 295 285 296 282 286 275 250 241 241 217 230 229 241 283 28 279 273 314 302 301 306 301 300 248 273 251 288 323 308 315 307 295 308 301
288 289 294 302 305 313 320 320 321 323 322 323 323 320 318 313 303 291 289 287 280 296 285 291 305 296 273 240 223 230 239 249 237 305 262 267 264 277 291 293 295 288 309 304 281 304 313 324 320 322 307 314 312 310
283 287 292 299 306 313 316 319 320 320 321 320 320 317 315 308 305 301 288 273 253 241 293 300 309 314 295 230 227 229 226 239 246 251 211 233 254 280 292 297 273 345 271 326 293 29 341 298 322 322 328 317 315 316
280 283 292 300 308 313 314 317 319 318 319 318 318 316 312 311 309 319 321 210 226 228 289 298 294 298 262 214 207 217 223 229 233 224 239 243 256 273 267 268 285 317 357 46 36 359 1 328 321 326 317 323 327 317
275 280 290 297 310 313 313 317 319 317 319 320 319 313 309 306 289 226 273 335 242 224 254 286 271 253 227 204 199 211 218 210 211 203 230 250 265 244 245 268 281 300 80 71 44 10 347 333 323 325 333 339 341 326
269 277 286 295 310 311 313 318 317 318 322 322 319 310 306 298 296 280 269 255 253 268 253 270 275 272 220 216 215 197 184 189 212 225 232 241 267 210 249 256 286 30 9 54 37 25 347 335 341 341 347 353 355 351
264 273 285 296 308 309 317 317 318 322 327 330 322 306 294 254 230 269 285 267 255 224 262 249 283 300 283 263 244 195 183 202 210 220 224 228 214 224 238 263 3 31 33 33 30 10 354 353 348 356 358 360 8 7
260 272 282 299 303 311 317 317 323 328 334 347 344 265 204 95 334 316 297 218 215 220 239 253 255 271 292 305 289 290 180 224 215 218 211 216 248 259 319 282 20 31 58 44 18 1 355 356 354 2 3 3 14 16
257 272 284 299 303 314 314 320 329 334 355 353 324 301 305 303 301 242 236 203 176 234 220 245 239 259 274 263 300 249 296 224 249 172 218 221 299 335 238 81 67 33 48 51 44 1 18 6 4 22 11 12 30 31
255 271 285 297 307 310 312 321 331 341 331 313 306 306 316 319 239 285 259 233 203 309 208 308 263 276 277 288 269 267 277 281 283 249 252 309 136 219 240 97 61 43 43 41 37 19 28 25 16 25 33 27 33 39
256 267 282 300 301 303 310 321 332 333 339 18 329 270 271 268 293 241 302 23 340 354 339 331 315 347 320 239 261 281 268 255 318 284 17 20 314 263 112 106 65 42 43 38 46 33 42 42 35 33 39 32 30 39
256 264 286 293 293 300 312 325 331 346 33 289 302 272 256 254 11 305 303 328 348 318 319 315 317 312 269 271 335 280 263 281 262 278 67 270 201 92 92 97 71 35 46 41 39 41 44 49 47 42 41 40 36 37
251 268 279 279 287 305 318 330 342 72 322 290 300 252 275 337 324 329 334 341 345 324 320 308 285 205 198 260 231 281 261 239 255 21 16 322 24 96 87 75 87 39 32 56 46 45 52 51 54 56 47 49 51 52
248 265 272 266 297 318 325 39 18 226 285 278 263 286 306 333 327 324 326 324 332 336 317 314 271 266 177 237 258 249 259 49 358 7 340 351 15 132 121 115 89 78 59 59 58 54 54 59 61 67 63 55 53 49
234 226 265 276 311 342 70 112 139 179 259 256 245 277 306 326 332 326 325 312 305 295 2 348 315 360 294 264 341 17 337 292 354 360 343 353 348 333 320 140 124 120 82 65 66 71 69 64 67 63 64 57 55 60
177 240 271 267 256 131 210 228 240 229 236 232 279 340 338 323 314 322 316 312 314 309 297 331 271 265 316 20 339 309 332 356 3 1 358 344 348 358 328 99 141 142 113 116 95 80 69 70 63 79 79 76 71 63
175 215 254 216 202 156 202 218 226 270 282 309 313 338 329 324 324 343 329 315 306 300 300 305 313 42 0 343 339 346 351 353 356 349 342 358 5 355 360 323 170 133 145 129 113 96 94 78 73 74 79 78 77 76
198 211 215 197 158 178 205 199 204 244 260 326 308 317 327 29 15 345 345 351 359 356 3 33 22 345 332 322 327 330 330 338 346 341 343 346 353 359 352 347 353 172 197 151 134 119 112 104 85 86 87 85 85 85
185 180 151 146 184 217 246 237 237 230 295 295 300 313 331 37 37 42 32 36 55 43 11 345 334 334 337 329 333 329 330 336 336 329 323 331 332 335 335 359 349 102 174 200 157 153 132 108 110 103 96 93 92 95
196 201 156 183 204 208 250 210 271 312 244 269 308 303 18 39 63 53 56 58 66 30 7 349 349 351 350 346 336 328 322 321 323 327 329 334 331 330 333 332 347 17 253 264 186 178 148 136 131 124 119 111 102 103
170 163 176 193 205 214 246 218 236 259 309 278 302 295 73 82 71 92 72 50 62 11 6 5 3 10 3 359 1 357 347 336 327 321 325 327 322 320 325 329 332 326 251 214 236 203 178 160 152 145 137 132 126 123
163 181 199 200 196 213 206 187 185 209 240 237 260 329 67 61 51 87 87 51 4 359 1 7 2 1 6 11 10 5 1 357 350 347 355 349 339 330 331 328 341 14 308 304 244 211 180 173 170 162 158 153 146 140
199 209 191 222 210 196 200 199 182 201 254 151 245 182 194 176 118 82 82 36 359 355 355 357 0 4 357 359 6 8 13 13 16 25 7 344 338 330 331 336 349 357 18 12 322 228 194 193 184 182 177 169 161 159
219 209 193 196 187 193 194 168 187 210 210 207 216 155 157 145 80 85 73 16 352 347 351 356 354 355 359 6 2 7 13 20 26 28 15 12 10 3 353 345 341 346 5 42 10 300 242 209 197 192 190 183 174 169
222 215 201 215 189 182 192 190 189 149 203 223 163 169 129 136 134 108 124 17 353 347 354 356 354 355 359 1 7 6 12 23 22 17 22 20 22 21 13 2 351 327 330 338 333 344 329 204 202 213 196 192 189 182
233 217 191 190 178 179 205 175 197 215 201 173 265 124 152 153 71 98 70 11 350 2 359 5 3 5 5 8 9 7 8 15 23 30 29 17 17 18 17 14 5 337 294 289 302 331 266 240 244 218 203 196 195 190
219 214 171 180 155 166 205 200 213 193 152 192 164 115 98 91 134 115 82 22 6 4 7 12 11 10 12 15 18 18 10 14 19 20 17 11 14 16 16 10 9 10 349 320 288 275 266 248 225 252 213 201 197 191
204 191 165 178 173 206 199 196 173 122 146 90 111 108 100 108 112 104 84 30 13 7 6 9 11 15 14 14 14 19 19 17 20 18 13 6 3 8 8 8 13 13 15 7 348 290 264 230 242 201 202 196 192 190
183 178 176 185 202 221 171 147 148 151 153 155 150 145 140 145 136 91 62 35 13 0 12 18 22 22 18 16 13 11 15 11 13 14 15 13 14 17 15 11 15 21 25 25 25 16 304 231 207 186 201 200 197 191
187 187 175 188 205 150 160 155 157 162 165 173 139 139 144 156 141 137 16 67 65 43 27 26 21 15 15 12 14 11 12 1 6 3 6 12 17 21 20 20 14 26 30 35 40 40 38 33 73 165 163 180 192 194
187 194 180 190 207 190 188 160 163 160 163 179 172 170 165 148 110 140 116 41 84 77 26 5 5 3 4 6 7 10 11 7 359 355 3 12 15 19 21 25 20 22 33 41 44 47 51 55 59 57 53 77 126 156
Wind_Speed_850mb
37 39 37 36 40 44 46 49 48 50 50 49 47 42 38 35 30 25 24 18 29 42 67 66 50 45 31 24 10 27 23 12 17 7 6 8 8 10 15 20 23 6 6 6 4 9 8 19 11 5 13 51 57 51
39 39 38 37 39 44 46 48 48 50 51 50 48 44 39 32 27 27 31 18 28 42 56 71 69 67 66 59 49 16 16 16 10 6 7 10 14 9 22 11 23 9 8 7 10 8 25 35 25 35 41 46 42 51
39 39 38 38 40 43 46 48 50 50 50 50 49 46 37 28 26 30 33 32 26 47 64 40 44 28 28 40 37 29 17 16 14 12 3 4 10 15 11 16 29 21 36 12 8 10 10 34 39 35 42 44 50 53
40 40 39 37 41 44 48 47 50 49 49 48 47 46 40 35 36 36 36 32 30 22 17 15 24 35 23 23 37 44 38 19 26 19 8 6 7 17 13 24 29 31 24 17 23 15 26 7 26 41 50 43 53 65
39 39 38 36 40 48 48 47 49 50 48 46 45 46 41 41 45 45 43 38 30 27 12 37 67 15 14 37 50 38 37 37 37 9 8 6 10 14 14 12 20 6 13 8 5 14 3 21 40 45 45 45 54 62
39 37 36 34 41 47 48 49 50 51 47 45 44 45 43 45 41 20 13 1 22 35 11 9 29 41 21 22 27 48 48 43 31 8 7 12 28 11 6 8 30 34 21 18 7 16 19 42 45 40 47 50 53 40
38 36 32 34 43 47 49 51 52 51 47 44 44 46 47 39 31 17 6 7 7 15 8 13 13 6 15 24 24 24 30 20 21 8 11 16 41 21 7 19 47 36 26 20 22 25 43 38 41 53 42 47 40 29
37 33 31 35 44 47 48 50 51 50 47 44 43 43 38 19 15 21 19 34 28 11 11 7 11 20 18 21 11 19 16 16 16 11 10 11 23 13 9 32 25 23 24 26 26 30 35 41 41 34 35 44 40 30
33 30 31 36 44 47 47 48 48 46 44 42 35 28 17 7 7 7 13 18 22 21 8 8 8 14 3 12 9 15 19 9 13 8 9 12 8 10 19 35 20 28 29 22 28 27 39 40 40 28 35 45 41 36
29 30 32 36 45 44 44 44 42 41 40 30 23 9 9 3 6 15 9 6 12 13 12 11 35 26 39 39 8 5 15 7 7 14 14 10 12 20 21 19 14 21 25 24 28 31 35 44 37 31 32 37 39 32
30 30 31 38 42 40 40 38 36 39 29 22 13 9 15 21 14 13 9 14 13 8 14 16 27 19 26 17 14 11 6 6 7 7 8 7 0 2 18 14 13 18 23 22 20 24 26 33 34 21 30 36 40 39
31 30 31 37 37 36 36 32 32 30 19 23 22 26 15 7 9 7 7 8 11 5 5 15 6 5 7 7 8 9 6 6 7 9 5 4 5 29 19 16 13 18 21 21 23 25 31 32 31 25 30 40 42 43
30 30 31 31 33 32 29 27 27 28 26 2 4 6 6 7 4 9 9 6 7 17 25 31 20 8 8 9 11 7 5 9 21 6 2 9 11 19 20 12 11 15 21 21 27 28 32 31 29 33 31 36 44 40
29 31 26 28 29 25 23 23 24 20 8 7 6 6 7 3 7 6 14 15 16 23 26 28 23 5 6 4 6 8 9 7 5 5 7 16 4 11 19 19 9 15 19 23 26 27 32 33 32 32 39 37 38 40
29 25 24 24 20 18 20 19 12 8 5 7 9 5 5 17 32 38 38 37 38 38 33 24 27 23 5 5 4 7 8 7 1 4 7 39 15 8 22 20 7 15 17 24 23 24 29 31 32 34 33 35 32 31
23 21 21 13 12 15 16 2 6 1 2 5 7 13 22 26 29 34 35 29 31 43 40 21 12 7 7 2 5 7 6 8 11 13 38 36 24 7 16 13 11 8 14 19 22 22 24 27 30 30 32 37 35 33
16 13 15 10 9 7 6 10 2 2 2 6 12 17 19 27 30 30 32 28 28 23 9 8 12 9 11 4 6 10 7 8 34 46 54 45 44 39 5 14 10 19 18 13 16 19 19 22 22 23 30 33 43 49
15 12 17 11 3 4 5 2 4 6 11 18 14 16 18 24 26 28 28 23 22 24 17 6 11 4 6 9 5 7 25 40 45 46 60 43 31 30 25 1 16 12 12 10 12 12 13 15 21 26 28 31 33 31
31 25 9 8 7 12 8 6 6 7 6 12 14 18 24 25 23 26 29 21 23 25 15 8 6 8 9 17 38 48 49 49 45 46 44 47 45 37 20 37 12 14 13 14 12 15 13 18 19 22 23 24 29 30
23 20 11 8 18 6 7 7 6 7 9 11 11 17 22 22 34 32 24 23 21 11 14 11 10 24 29 40 42 46 50 47 44 46 50 58 48 44 44 40 9 5 9 15 14 15 15 16 19 20 23 25 27 29
16 14 9 18 6 5 6 5 8 5 8 10 13 19 12 18 21 24 24 20 23 12 13 20 33 43 42 36 39 37 35 37 40 38 43 46 48 44 36 37 20 4 10 23 17 13 13 16 16 19 20 24 25 30
13 9 11 7 7 7 7 8 7 8 7 9 13 13 8 11 11 14 29 32 14 13 22 32 41 45 42 39 40 35 36 36 32 35 33 34 39 42 39 30 26 18 14 17 9 13 18 17 18 16 20 27 27 26
15 20 9 10 8 8 8 7 8 4 1 6 8 6 5 5 4 5 9 14 11 22 29 34 35 38 40 40 43 35 31 33 29 30 34 35 34 37 39 35 36 28 11 22 24 13 18 23 25 20 23 20 22 31
21 10 10 11 15 8 6 12 9 8 8 6 4 2 4 5 4 6 7 7 15 24 31 41 34 36 40 48 56 52 49 40 30 24 23 29 35 38 38 37 37 29 12 16 29 30 28 23 26 26 27 24 24 22
6 9 9 8 12 10 9 8 12 6 6 4 3 4 5 4 1 5 5 7 19 25 33 38 38 39 40 41 52 58 49 40 36 34 33 34 38 40 38 35 31 35 33 32 15 30 30 34 32 29 28 27 28 27
10 14 15 21 14 11 12 9 13 14 3 3 6 5 2 2 4 6 5 11 13 20 28 33 36 37 38 44 47 61 57 44 32 33 34 33 39 43 42 44 43 29 30 22 21 27 41 35 33 33 32 31 32 31
9 14 16 18 22 19 9 15 9 8 9 7 6 9 2 2 5 7 7 8 11 17 21 24 27 28 33 36 38 47 52 46 40 26 36 42 40 46 44 46 45 33 26 19 22 17 17 32 42 40 38 33 33 32
15 16 21 24 17 13 10 11 10 8 9 8 1 7 9 4 5 7 4 6 10 15 17 20 23 24 25 26 30 38 46 46 40 37 25 32 40 52 47 45 39 24 27 33 28 13 8 21 39 35 43 41 36 35
14 19 26 21 17 8 14 15 13 12 4 3 5 5 7 8 10 8 4 5 8 11 15 19 21 22 23 24 27 29 37 51 58 59 55 59 66 67 66 61 54 45 28 26 22 23 20 9 23 34 39 52 44 40
21 27 13 24 14 13 18 21 10 9 7 7 18 25 24 19 13 8 5 5 8 10 12 14 16 21 24 26 27 30 32 39 46 47 48 52 50 52 60 62 57 53 45 35 26 15 13 13 13 25 33 49 51 46
26 29 17 19 17 29 29 27 19 14 13 12 13 22 22 21 14 9 9 8 6 7 9 12 14 18 22 25 28 30 31 33 39 41 45 41 47 44 47 55 56 52 50 44 39 26 10 17 22 20 35 43 50 56
34 30 27 14 15 18 33 29 24 18 17 17 17 24 20 17 12 6 5 7 7 8 10 11 13 15 20 19 19 21 25 27 34 46 44 44 46 47 43 46 53 51 50 49 49 44 35 21 6 25 34 37 45 53
25 30 30 21 16 23 27 18 17 16 18 18 12 17 14 11 9 9 5 6 8 9 10 10 9 13 13 18 21 20 21 22 32 39 38 37 37 42 43 41 40 45 45 48 50 49 49 44 36 28 23 21 26 33
Wind_Direction_850mb
298 304 304 307 315 326 330 330 331 330 332 333 333 332 327 325 323 317 290 264 268 274 282 282 278 283 285 267 254 292 320 16 302 279 305 339 323 326 317 313 297 282 271 264 283 276 299 265 25 212 290 296 299 303
294 299 300 304 312 322 327 326 327 326 328 331 330 328 326 323 323 317 300 302 278 274 270 288 285 276 265 262 265 249 256 317 280 317 344 326 317 299 316 297 317 317 287 261 205 252 319 333 309 295 294 278 291 297
290 293 296 303 309 317 324 323 324 324 325 326 327 325 322 319 317 302 294 296 295 285 296 282 286 275 250 241 241 217 230 229 241 283 28 279 273 314 302 301 306 301 300 248 273 251 288 323 308 315 307 295 308 301
288 289 294 302 305 313 320 320 321 323 322 323 323 320 318 313 303 291 289 287 280 296 285 291 305 296 273 240 223 230 239 249 237 305 262 267 264 277 291 293 295 288 309 304 281 304 313 324 320 322 307 314 312 310
283 287 292 299 306 313 316 319 320 320 321 320 320 317 315 308 305 301 288 273 253 241 293 300 309 314 295 230 227 229 226 239 246 251 211 233 254 280 292 297 273 345 271 326 293 29 341 298 322 322 328 317 315 316
280 283 292 300 308 313 314 317 319 318 319 318 318 316 312 311 309 319 321 210 226 228 289 298 294 298 262 214 207 217 223 229 233 224 239 243 256 273 267 268 285 317 357 46 36 359 1 328 321 326 317 323 327 317
275 280 290 297 310 313 313 317 319 317 319 320 319 313 309 306 289 226 273 335 242 224 254 286 271 253 227 204 199 211 218 210 211 203 230 250 265 244 245 268 281 300 80 71 44 10 347 333 323 325 333 339 341 326
269 277 286 295 310 311 313 318 317 318 322 322 319 310 306 298 296 280 269 255 253 268 253 270 275 272 220 216 215 197 184 189 212 225 232 241 267 210 249 256 286 30 9 54 37 25 347 335 341 341 347 353 355 351
264 273 285 296 308 309 317 317 318 322 327 330 322 306 294 254 230 269 285 267 255 224 262 249 283 300 283 263 244 195 183 202 210 220 224 228 214 224 238 263 3 31 33 33 30 10 354 353 348 356 358 360 8 7
260 272 282 299 303 311 317 317 323 328 334 347 344 265 204 95 334 316 297 218 215 220 239 253 255 271 292 305 289 290 180 224 215 218 211 216 248 259 319 282 20 31 58 44 18 1 355 356 354 2 3 3 14 16
257 272 284 299 303 314 314 320 329 334 355 353 324 301 305 303 301 242 236 203 176 234 220 245 239 259 274 263 300 249 296 224 249 172 218 221 299 335 238 81 67 33 48 51 44 1 18 6 4 22 11 12 30 31
255 271 285 297 307 310 312 321 331 341 331 313 306 306 316 319 239 285 259 233 203 309 208 308 263 276 277 288 269 267 277 281 283 249 252 309 136 219 240 97 61 43 43 41 37 19 28 25 16 25 33 27 33 39
256 267 282 300 301 303 310 321 332 333 339 18 329 270 271 268 293 241 302 23 340 354 339 331 315 347 320 239 261 281 268 255 318 284 17 20 314 263 112 106 65 42 43 38 46 33 42 42 35 33 39 32 30 39
256 264 286 293 293 300 312 325 331 346 33 289 302 272 256 254 11 305 303 328 348 318 319 315 317 312 269 271 335 280 263 281 262 278 67 270 201 92 92 97 71 35 46 41 39 41 44 49 47 42 41 40 36 37
251 268 279 279 287 305 318 330 342 72 322 290 300 252 275 337 324 329 334 341 345 324 320 308 285 205 198 260 231 281 261 239 255 21 16 322 24 96 87 75 87 39 32 56 46 45 52 51 54 56 47 49 51 52
248 265 272 266 297 318 325 39 18 226 285 278 263 286 306 333 327 324 326 324 332 336 317 314 271 266 177 237 258 249 259 49 358 7 340 351 15 132 121 115 89 78 59 59 58 54 54 59 61 67 63 55 53 49
234 226 265 276 311 342 70 112 139 179 259 256 245 277 306 326 332 326 325 312 305 295 2 348 315 360 294 264 341 17 337 292 354 360 343 353 348 333 320 140 124 120 82 65 66 71 69 64 67 63 64 57 55 60
177 240 271 267 256 131 210 228 240 229 236 232 279 340 338 323 314 322 316 312 314 309 297 331 271 265 316 20 339 309 332 356 3 1 358 344 348 358 328 99 141 142 113 116 95 80 69 70 63 79 79 76 71 63
175 215 254 216 202 156 202 218 226 270 282 309 313 338 329 324 324 343 329 315 306 300 300 305 313 42 0 343 339 346 351 353 356 349 342 358 5 355 360 323 170 133 145 129 113 96 94 78 73 74 79 78 77 76
198 211 215 197 158 178 205 199 204 244 260 326 308 317 327 29 15 345 345 351 359 356 3 33 22 345 332 322 327 330 330 338 346 341 343 346 353 359 352 347 353 172 197 151 134 119 112 104 85 86 87 85 85 85
185 180 151 146 184 217 246 237 237 230 295 295 300 313 331 37 37 42 32 36 55 43 11 345 334 334 337 329 333 329 330 336 336 329 323 331 332 335 335 359 349 102 174 200 157 153 132 108 110 103 96 93 92 95
196 201 156 183 204 208 250 210 271 312 244 269 308 303 18 39 63 53 56 58 66 30 7 349 349 351 350 346 336 328 322 321 323 327 329 334 331 330 333 332 347 17 253 264 186 178 148 136 131 124 119 111 102 103
170 163 176 193 205 214 246 218 236 259 309 278 302 295 73 82 71 92 72 50 62 11 6 5 3 10 3 359 1 357 347 336 327 321 325 327 322 320 325 329 332 326 251 214 236 203 178 160 152 145 137 132 126 123
163 181 199 200 196 213 206 187 185 209 240 237 260 329 67 61 51 87 87 51 4 359 1 7 2 1 6 11 10 5 1 357 350 347 355 349 339 330 331 328 341 14 308 304 244 211 180 173 170 162 158 153 146 140
199 209 191 222 210 196 200 199 182 201 254 151 245 182 194 176 118 82 82 36 359 355 355 357 0 4 357 359 6 8 13 13 16 25 7 344 338 330 331 336 349 357 18 12 322 228 194 193 184 182 177 169 161 159
219 209 193 196 187 193 194 168 187 210 210 207 216 155 157 145 80 85 73 16 352 347 351 356 354 355 359 6 2 7 13 20 26 28 15 12 10 3 353 345 341 346 5 42 10 300 242 209 197 192 190 183 174 169
222 215 201 215 189 182 192 190 189 149 203 223 163 169 129 136 134 108 124 17 353 347 354 356 354 355 359 1 7 6 12 23 22 17 22 20 22 21 13 2 351 327 330 338 333 344 329 204 202 213 196 192 189 182
233 217 191 190 178 179 205 175 197 215 201 173 265 124 152 153 71 98 70 11 350 2 359 5 3 5 5 8 9 7 8 15 23 30 29 17 17 18 17 14 5 337 294 289 302 331 266 240 244 218 203 196 195 190
219 214 171 180 155 166 205 200 213 193 152 192 164 115 98 91 134 115 82 22 6 4 7 12 11 10 12 15 18 18 10 14 19 20 17 11 14 16 16 10 9 10 349 320 288 275 266 248 225 252 213 201 197 191
204 191 165 178 173 206 199 196 173 122 146 90 111 108 100 108 112 104 84 30 13 7 6 9 11 15 14 14 14 19 19 17 20 18 13 6 3 8 8 8 13 13 15 7 348 290 264 230 242 201 202 196 192 190
183 178 176 185 202 221 171 147 148 151 153 155 150 145 140 145 136 91 62 35 13 0 12 18 22 22 18 16 13 11 15 11 13 14 15 13 14 17 15 11 15 21 25 25 25 16 304 231 207 186 201 200 197 191
187 187 175 188 205 150 160 155 157 162 165 173 139 139 144 156 141 137 16 67 65 43 27 26 21 15 15 12 14 11 12 1 6 3 6 12 17 21 20 20 14 26 30 35 40 40 38 33 73 165 163 180 192 194
187 194 180 190 207 190 188 160 163 160 163 179 172 170 165 148 110 140 116 41 84 77 26 5 5 3 4 6 7 10 11 7 359 355 3 12 15 19 21 25 20 22 33 41 44 47 51 55 59 57 53 77 126 156